• In Belarus
  • List of Countries
  • For 7 days
  • Water Temperature
  • Satellite Maps
  • Weather Map
  • Weather Widgets
  • user-avatar
    Login

    Hourly Weather Rio de Janeiro

    Today, 16 December, Saturday

    Time Temperature Precipitation Wind Pressure Humidity
    00:00 +26°C° 0 mm 1 mps 757 mmHg 82%
    01:00 +25°C° 0 mm 1 mps 757 mmHg 83%
    02:00 +25°C° 0 mm 1 mps 757 mmHg 84%
    03:00 +25°C° 0 mm 1 mps 757 mmHg 85%
    04:00 +25°C° 0 mm 1 mps 757 mmHg 85%
    05:00 +25°C° 0 mm 1 mps 757 mmHg 84%
    06:00 +26°C° 0 mm 1 mps 757 mmHg 84%
    07:00 +28°C° 0 mm 1 mps 758 mmHg 73%
    08:00 +31°C° 0 mm 1 mps 758 mmHg 63%
    09:00 +34°C° 0 mm 1 mps 758 mmHg 53%
    10:00 +36°C° 0 mm 2 mps 758 mmHg 49%
    11:00 +37°C° 0 mm 2 mps 758 mmHg 46%
    12:00 +38°C° 0 mm 3 mps 757 mmHg 43%
    13:00 +37°C° 0.1 mm 3 mps 757 mmHg 46%
    14:00 +36°C° 0.1 mm 4 mps 756 mmHg 50%
    15:00 +35°C° 0.1 mm 4 mps 756 mmHg 53%
    16:00 +34°C° 0.1 mm 4 mps 756 mmHg 59%
    17:00 +32°C° 0.1 mm 4 mps 756 mmHg 65%
    18:00 +30°C° 0.1 mm 3 mps 756 mmHg 71%
    19:00 +29°C° 0.2 mm 3 mps 757 mmHg 75%
    20:00 +28°C° 0.2 mm 3 mps 757 mmHg 80%
    21:00 +27°C° 0.2 mm 3 mps 758 mmHg 84%
    22:00 +27°C° 0 mm 3 mps 758 mmHg 84%
    23:00 +27°C° 0 mm 3 mps 758 mmHg 84%

    Tomorrow, 17 December, Sunday

    Time Temperature Precipitation Wind Pressure Humidity
    00:00 +27°C° 0 mm 3 mps 758 mmHg 84%
    01:00 +27°C° 0 mm 3 mps 757 mmHg 84%
    02:00 +26°C° 0 mm 3 mps 757 mmHg 83%
    03:00 +26°C° 0 mm 3 mps 756 mmHg 83%
    04:00 +26°C° 0 mm 3 mps 757 mmHg 82%
    05:00 +26°C° 0 mm 3 mps 757 mmHg 81%
    06:00 +26°C° 0 mm 3 mps 757 mmHg 80%
    07:00 +29°C° 0 mm 3 mps 758 mmHg 70%
    08:00 +31°C° 0 mm 3 mps 758 mmHg 60%
    09:00 +34°C° 0 mm 3 mps 758 mmHg 51%
    10:00 +35°C° 0 mm 3 mps 758 mmHg 47%
    11:00 +37°C° 0 mm 3 mps 758 mmHg 43%
    12:00 +38°C° 0 mm 3 mps 758 mmHg 39%
    13:00 +38°C° 0.2 mm 3 mps 758 mmHg 41%
    14:00 +38°C° 0.2 mm 4 mps 758 mmHg 43%
    15:00 +37°C° 0.2 mm 4 mps 757 mmHg 45%
    16:00 +36°C° 0.1 mm 4 mps 757 mmHg 50%
    17:00 +35°C° 0.1 mm 3 mps 757 mmHg 55%
    18:00 +33°C° 0.1 mm 3 mps 757 mmHg 60%
    19:00 +31°C° 0 mm 3 mps 758 mmHg 63%
    20:00 +30°C° 0 mm 3 mps 758 mmHg 67%
    21:00 +29°C° 0 mm 3 mps 759 mmHg 70%
    22:00 +29°C° 0 mm 3 mps 759 mmHg 71%
    23:00 +28°C° 0 mm 3 mps 759 mmHg 72%

    Day after tomorrow, 18 December, Monday

    Time Temperature Precipitation Wind Pressure Humidity
    00:00 +28°C° 0 mm 3 mps 759 mmHg 72%
    01:00 +28°C° 0 mm 3 mps 758 mmHg 73%
    02:00 +27°C° 0 mm 3 mps 758 mmHg 73%
    03:00 +27°C° 0 mm 3 mps 758 mmHg 74%
    04:00 +27°C° 0 mm 3 mps 758 mmHg 74%
    05:00 +27°C° 0 mm 3 mps 758 mmHg 74%
    06:00 +27°C° 0 mm 3 mps 758 mmHg 75%
    07:00 +29°C° 0 mm 3 mps 758 mmHg 67%
    08:00 +31°C° 0 mm 2 mps 759 mmHg 60%
    09:00 +34°C° 0 mm 2 mps 759 mmHg 53%
    10:00 +36°C° 0 mm 2 mps 759 mmHg 47%
    11:00 +38°C° 0 mm 2 mps 759 mmHg 41%
    12:00 +40°C° 0 mm 2 mps 759 mmHg 35%
    13:00 +39°C° 0 mm 3 mps 758 mmHg 38%
    14:00 +38°C° 0 mm 3 mps 758 mmHg 41%
    15:00 +37°C° 0 mm 3 mps 758 mmHg 44%
    16:00 +35°C° 0 mm 3 mps 758 mmHg 51%
    17:00 +32°C° 0 mm 2 mps 758 mmHg 57%
    18:00 +30°C° 0 mm 2 mps 759 mmHg 64%
    19:00 +29°C° 0 mm 2 mps 759 mmHg 68%
    20:00 +28°C° 0 mm 1 mps 760 mmHg 72%
    21:00 +27°C° 0 mm 1 mps 760 mmHg 77%
    22:00 +27°C° 0 mm 1 mps 760 mmHg 79%
    23:00 +27°C° 0 mm 1 mps 760 mmHg 82%

    19 December, Tuesday

    Time Temperature Precipitation Wind Pressure Humidity
    00:00 +26°C° 0 mm 1 mps 760 mmHg 84%
    01:00 +26°C° 0 mm 1 mps 760 mmHg 85%
    02:00 +26°C° 0 mm 1 mps 759 mmHg 86%
    03:00 +26°C° 0 mm 1 mps 759 mmHg 87%
    04:00 +26°C° 0 mm 1 mps 760 mmHg 86%
    05:00 +26°C° 0 mm 1 mps 760 mmHg 84%
    06:00 +26°C° 0 mm 1 mps 760 mmHg 83%
    07:00 +28°C° 0 mm 1 mps 761 mmHg 77%
    08:00 +30°C° 0 mm 1 mps 761 mmHg 71%
    09:00 +31°C° 0 mm 1 mps 761 mmHg 66%
    10:00 +32°C° 0 mm 1 mps 761 mmHg 62%
    11:00 +34°C° 0 mm 2 mps 760 mmHg 59%
    12:00 +35°C° 0 mm 2 mps 760 mmHg 55%
    13:00 +34°C° 0.1 mm 2 mps 760 mmHg 58%
    14:00 +34°C° 0.1 mm 3 mps 759 mmHg 61%
    15:00 +33°C° 0.1 mm 3 mps 758 mmHg 63%
    16:00 +31°C° 0.1 mm 3 mps 758 mmHg 68%
    17:00 +30°C° 0.1 mm 3 mps 759 mmHg 73%
    18:00 +29°C° 0.1 mm 3 mps 759 mmHg 78%
    19:00 +28°C° 0.1 mm 3 mps 759 mmHg 81%
    20:00 +28°C° 0.1 mm 2 mps 759 mmHg 84%
    21:00 +27°C° 0.1 mm 2 mps 760 mmHg 87%
    22:00 +27°C° 0.1 mm 2 mps 760 mmHg 88%
    23:00 +26°C° 0.1 mm 2 mps 760 mmHg 89%

    20 December, Wednesday

    Time Temperature Precipitation Wind Pressure Humidity
    00:00 +26°C° 0.1 mm 2 mps 759 mmHg 90%
    01:00 +26°C° 0 mm 2 mps 759 mmHg 91%
    02:00 +26°C° 0 mm 2 mps 759 mmHg 91%
    03:00 +26°C° 0 mm 1 mps 758 mmHg 91%
    04:00 +26°C° 0 mm 1 mps 759 mmHg 90%
    05:00 +26°C° 0 mm 1 mps 759 mmHg 89%
    06:00 +26°C° 0 mm 2 mps 759 mmHg 88%
    07:00 +28°C° 0 mm 1 mps 759 mmHg 78%
    08:00 +30°C° 0 mm 1 mps 759 mmHg 69%
    09:00 +32°C° 0 mm 1 mps 759 mmHg 59%
    10:00 +35°C° 0 mm 2 mps 759 mmHg 55%
    11:00 +36°C° 0 mm 2 mps 758 mmHg 50%
    12:00 +38°C° 0 mm 3 mps 758 mmHg 45%
    13:00 +37°C° 0.1 mm 3 mps 757 mmHg 49%
    14:00 +35°C° 0.1 mm 3 mps 757 mmHg 54%
    15:00 +34°C° 0.1 mm 4 mps 756 mmHg 58%
    16:00 +33°C° 0.1 mm 4 mps 757 mmHg 64%
    17:00 +32°C° 0.1 mm 4 mps 757 mmHg 70%
    18:00 +29°C° 0.1 mm 3 mps 757 mmHg 76%
    19:00 +29°C° 0.1 mm 3 mps 757 mmHg 78%
    20:00 +28°C° 0.1 mm 3 mps 757 mmHg 81%
    21:00 +27°C° 0.1 mm 3 mps 758 mmHg 84%
    22:00 +27°C° 0.3 mm 3 mps 758 mmHg 85%
    23:00 +27°C° 0.3 mm 3 mps 757 mmHg 87%

    21 December, Thursday

    Time Temperature Precipitation Wind Pressure Humidity
    00:00 +26°C° 0.3 mm 3 mps 757 mmHg 89%
    01:00 +26°C° 0.2 mm 3 mps 757 mmHg 89%
    02:00 +26°C° 0.2 mm 2 mps 757 mmHg 89%
    03:00 +26°C° 0.2 mm 2 mps 756 mmHg 89%
    04:00 +26°C° 0 mm 2 mps 757 mmHg 88%
    05:00 +26°C° 0 mm 2 mps 757 mmHg 87%
    06:00 +26°C° 0 mm 3 mps 757 mmHg 85%
    07:00 +27°C° 0 mm 2 mps 757 mmHg 77%
    08:00 +29°C° 0 mm 2 mps 757 mmHg 70%
    09:00 +31°C° 0 mm 2 mps 757 mmHg 62%
    10:00 +31°C° 0 mm 2 mps 757 mmHg 58%
    11:00 +32°C° 0 mm 2 mps 757 mmHg 55%
    12:00 +34°C° 0 mm 3 mps 756 mmHg 52%
    13:00 +34°C° 0.2 mm 3 mps 756 mmHg 54%
    14:00 +34°C° 0.2 mm 2 mps 756 mmHg 57%
    15:00 +32°C° 0.2 mm 2 mps 756 mmHg 59%
    16:00 +31°C° 0.7 mm 2 mps 756 mmHg 67%
    17:00 +29°C° 0.7 mm 2 mps 756 mmHg 75%
    18:00 +28°C° 0.7 mm 2 mps 756 mmHg 83%
    19:00 +27°C° 0.8 mm 2 mps 757 mmHg 85%
    20:00 +27°C° 0.8 mm 2 mps 757 mmHg 88%
    21:00 +26°C° 0.8 mm 2 mps 757 mmHg 90%
    22:00 +26°C° 1.3 mm 2 mps 757 mmHg 91%
    23:00 +26°C° 1.3 mm 2 mps 757 mmHg 92%
    Show more